Skip Page Navigation
NASA JPL Caltech
NASA Logo - Jet Propulsion Laboratory + View the NASA Portal
+ Near-Earth Object (NEO) Program
Search JPL
JPL Home Earth Solar System Stars & Galaxies Technology
JPL Solar System Dynamics
BODIES ORBITS EPHEMERIDES TOOLS PHYSICAL DATA DISCOVERY FAQ SITE MAP
JPL Small-Body Database Browser
Search: [ help ]  
3735 Trebon (1983 XS)
Classification: Main-belt Asteroid          SPK-ID: 2003735
Ephemeris | Orbit Diagram | Orbital Elements | Physical Parameters | Discovery Circumstances | Close-Approach Data ]

[ show orbit diagram ]
Orbital Elements at Epoch 2456400.5 (2013-Apr-18.0) TDB
Reference: JPL 1 (heliocentric ecliptic J2000)
 Element Value Uncertainty (1-sigma)   Units 
e .1498863407616007 7.9223e-08  
a 3.099101055582178 2.6724e-08 AU
q 2.634588138710551 2.4943e-07 AU
i 5.207630008111826 6.8209e-06 deg
node 298.2344501864935 7.7598e-05 deg
peri 258.9491192566462 8.08e-05 deg
M 6.19581949097617 2.174e-05 deg
tp 2456366.203619438408
(2013-Mar-14.70361944)
0.0001203 JED
period 1992.746402659963
5.46
2.5775e-05
7.057e-08
d
yr
n .1806552000392342 2.3367e-09 deg/d
Q 3.563613972453805 3.0729e-08 AU
  Orbit Determination Parameters
   # obs. used (total)      1123  
   data-arc span      40272 days (110.26 yr)  
   first obs. used      1903-01-18  
   last obs. used      2013-04-22  
   planetary ephem.      DE405  
   SB-pert. ephem.      SB405-CPV-2  
   condition code      0  
   fit RMS      .53465  
   data source      ORB  
   producer      Otto Matic  
   solution date      2013-Apr-29 12:59:18  

Additional Information
 Earth MOID = 1.6396 AU 
 T_jup = 3.199 
[ show covariance matrix ]

Ephemeris | Orbit Diagram | Orbital Elements | Physical Parameters | Discovery Circumstances | Close-Approach Data ]

Physical Parameter Table
Parameter Symbol Value Units Sigma Reference Notes
absolute magnitude H 11.6 mag n/a PDS3 (MPC 28110)  

3735 Trebon (1983 XS)          Discovered 1983-Dec-04 by Vavrova, Z. at Klet
Reference: DISCOVERY.DBLast Updated: 2003-08-29

[ show close-approach data ]
Alternate Designations
 1983 XS = 1973 YX3 = 1974 CK = A903 BE 
Ephemeris | Orbit Diagram | Orbital Elements | Physical Parameters | Discovery Circumstances | Close-Approach Data ]
ABOUT SSD CREDITS/AWARDS PRIVACY/COPYRIGHT GLOSSARY LINKS
FirstGov 2013-Jun-19 23:41 UT
(server date/time)  
NASA Home Page
Site Manager:   Donald K. Yeomans
Webmaster  Alan B. Chamberlin